| time (UTC) | temp F | wind direction | speed MPH | gust MPH | rain 1hr in | rain 24hr in | rain mn in | humidity % | barometer mb |
| 20260505061638 | 59 | 190 | 2.0 | 5.0 | 0.00 | 0.00 | 0.00 | 1 | 1013.9 |
| 20260505060103 | 59 | 182 | 3.0 | 6.0 | 0.00 | 0.00 | 0.00 | 1 | 1013.9 |
| 20260505054606 | 60 | 192 | 2.0 | 6.0 | 0.00 | 0.00 | 0.00 | 1 | 1014.1 |
| 20260505053054 | 60 | 187 | 2.0 | 6.0 | 0.00 | 0.00 | 0.00 | 1 | 1014.1 |
| 20260505051610 | 60 | 189 | 2.0 | 6.0 | 0.00 | 0.00 | 0.00 | 1 | 1014.4 |
| 20260505041533 | 59 | 227 | 0.0 | 4.0 | 0.00 | 0.00 | 0.00 | 1 | 1014.5 |
| 20260505040029 | 59 | 246 | 0.0 | 3.0 | 0.00 | 0.00 | 0.00 | 1 | 1014.4 |
| 20260505034523 | 58 | 269 | 0.0 | 3.0 | 0.00 | 0.00 | 0.00 | 1 | 1014.3 |
| 20260505033019 | 58 | 279 | 1.0 | 4.0 | 0.00 | 0.00 | 0.00 | 1 | 1014.3 |
| 20260505031517 | 59 | 278 | 3.0 | 5.0 | 0.00 | 0.00 | 0.00 | 1 | 1014.2 |
| 20260505030011 | 59 | 276 | 2.0 | 6.0 | 0.00 | 0.00 | 0.00 | 1 | 1014.1 |
| 20260505024509 | 61 | 294 | 3.0 | 6.0 | 0.00 | 0.00 | 0.00 | 1 | 1013.9 |
| 20260505023002 | 62 | 250 | 3.0 | 7.0 | 0.00 | 0.00 | 0.00 | 1 | 1014.0 |
| 20260505021557 | 62 | 302 | 5.0 | 8.0 | 0.00 | 0.00 | 0.00 | 1 | 1013.9 |
| 20260505020103 | 63 | 260 | 6.0 | 9.0 | 0.00 | 0.00 | 0.00 | 1 | 1014.0 |
| 20260505014554 | 64 | 257 | 2.0 | 10.0 | 0.00 | 0.00 | 0.00 | 1 | 1013.7 |
| 20260505013048 | 65 | 232 | 4.0 | 10.0 | 0.00 | 0.00 | 0.00 | 1 | 1013.9 |
| 20260505011544 | 65 | 246 | 3.0 | 8.0 | 0.00 | 0.00 | 0.00 | 1 | 1013.8 |
| 20260505010039 | 65 | 295 | 4.0 | 10.0 | 0.00 | 0.00 | 0.00 | 1 | 1013.9 |
| 20260505004535 | 65 | 208 | 5.0 | 14.0 | 0.00 | 0.00 | 0.00 | 1 | 1014.1 |
| 20260505003029 | 66 | 285 | 7.0 | 12.0 | 0.00 | 0.00 | 0.00 | 1 | 1013.9 |
| 20260505001525 | 66 | 312 | 7.0 | 14.0 | 0.00 | 0.00 | 0.00 | 1 | 1014.0 |
| 20260505000048 | 67 | 179 | 2.0 | 14.0 | 0.00 | 0.00 | 0.00 | 1 | 1013.9 |
| 20260504234543 | 67 | 261 | 6.0 | 13.0 | 0.00 | 0.00 | 0.00 | 1 | 1014.2 |
| 20260504233047 | 67 | 250 | 7.0 | 13.0 | 0.00 | 0.00 | 0.00 | 1 | 1014.0 |
| 20260504231541 | 67 | 265 | 6.0 | 12.0 | 0.00 | 0.00 | 0.00 | 1 | 1014.1 |
| 20260504230030 | 67 | 271 | 8.0 | 15.0 | 0.00 | 0.00 | 0.00 | 1 | 1014.1 |
| 20260504224525 | 67 | 294 | 8.0 | 15.0 | 0.00 | 0.00 | 0.00 | 1 | 1013.9 |
| 20260504223021 | 68 | 279 | 5.0 | 13.0 | 0.00 | 0.00 | 0.00 | 1 | 1014.1 |
| 20260504221516 | 68 | 238 | 4.0 | 14.0 | 0.00 | 0.00 | 0.00 | 1 | 1014.2 |
| 20260504220012 | 68 | 251 | 4.0 | 12.0 | 0.00 | 0.00 | 0.00 | 1 | 1014.4 |
| 20260504214508 | 68 | 279 | 8.0 | 17.0 | 0.00 | 0.00 | 0.00 | 1 | 1014.5 |
| 20260504213004 | 68 | 302 | 4.0 | 13.0 | 0.00 | 0.00 | 0.00 | 1 | 1014.4 |
| 20260504211558 | 68 | 153 | 6.0 | 13.0 | 0.00 | 0.00 | 0.00 | 1 | 1014.7 |
| 20260504210106 | 68 | 342 | 6.0 | 14.0 | 0.00 | 0.00 | 0.00 | 1 | 1014.7 |
| 20260504204558 | 68 | 282 | 9.0 | 17.0 | 0.00 | 0.00 | 0.00 | 1 | 1014.9 |
| 20260504203102 | 68 | 296 | 3.0 | 11.0 | 0.00 | 0.00 | 0.00 | 1 | 1014.5 |
| 20260504201541 | 67 | 234 | 4.0 | 15.0 | 0.00 | 0.00 | 0.00 | 1 | 1014.5 |
| 20260504200037 | 67 | 211 | 6.0 | 14.0 | 0.00 | 0.00 | 0.00 | 1 | 1014.5 |
| 20260504194535 | 67 | 249 | 5.0 | 13.0 | 0.00 | 0.00 | 0.00 | 1 | 1014.8 |
| 20260504193029 | 67 | 325 | 6.0 | 13.0 | 0.00 | 0.00 | 0.00 | 1 | 1014.7 |
| 20260504191526 | 66 | 306 | 1.0 | 14.0 | 0.00 | 0.00 | 0.00 | 1 | 1014.8 |
| 20260504190019 | 66 | 211 | 4.0 | 15.0 | 0.00 | 0.00 | 0.00 | 1 | 1015.1 |
| 20260504184518 | 65 | 310 | 4.0 | 12.0 | 0.00 | 0.00 | 0.00 | 1 | 1015.3 |
| 20260504183012 | 66 | 196 | 5.0 | 10.0 | 0.00 | 0.00 | 0.00 | 1 | 1015.3 |
| 20260504181507 | 66 | 247 | 5.0 | 12.0 | 0.00 | 0.00 | 0.00 | 1 | 1015.1 |
| 20260504180006 | 65 | 299 | 7.0 | 13.0 | 0.00 | 0.00 | 0.00 | 1 | 1015.2 |
| 20260504174609 | 66 | 303 | 1.0 | 9.0 | 0.00 | 0.00 | 0.00 | 1 | 1015.1 |
| 20260504173057 | 65 | 200 | 2.0 | 9.0 | 0.00 | 0.00 | 0.00 | 1 | 1014.9 |
| 20260504171550 | 64 | 210 | 3.0 | 10.0 | 0.00 | 0.00 | 0.00 | 1 | 1014.9 |
| 20260504081509 | 57 | 296 | 3.0 | 10.0 | 0.00 | 0.00 | 0.00 | 1 | 1014.4 |